EZY041 SAWU-SAWC

Flight info

Callsign EZY041
Flight time 0h 42m
Altitude 24000
Route DEVIS DEVIS2Q
Aircraft A319/M-SDE3FGHIRWY/LB1

Departure

Time 2026-05-06 18:58
Airport Santa Cruz Airport (SAWU)

Arrival

Time 2026-05-06 19:40
Airport El Calafate - Commander Armando Tola International Airport (SAWC)
Time Latitude Longitude Altitude Speed Heading
2026-05-06 18:14 -50.02130 -68.57825 381 ft 0 kts 85°
2026-05-06 18:52 -50.02127 -68.57816 381 ft 8 kts 54°
2026-05-06 18:52 -50.02101 -68.57808 381 ft 2 kts 347°
2026-05-06 18:52 -50.02069 -68.57828 381 ft 1 kts 326°
2026-05-06 18:52 -50.02016 -68.57889 381 ft 12 kts 326°
2026-05-06 18:53 -50.01966 -68.57924 381 ft 4 kts 343°
2026-05-06 18:53 -50.01914 -68.57945 381 ft 2 kts 347°
2026-05-06 18:53 -50.01860 -68.57964 381 ft 11 kts 351°
2026-05-06 18:53 -50.01796 -68.57983 381 ft 13 kts 349°
2026-05-06 18:54 -50.01735 -68.58033 381 ft 7 kts 292°
2026-05-06 18:54 -50.01737 -68.58220 381 ft 18 kts 259°
2026-05-06 18:54 -50.01765 -68.58411 381 ft 18 kts 258°
2026-05-06 18:54 -50.01792 -68.58607 380 ft 19 kts 258°
2026-05-06 18:55 -50.01819 -68.58810 381 ft 19 kts 259°
2026-05-06 18:55 -50.01844 -68.59002 378 ft 16 kts 259°
2026-05-06 18:55 -50.01858 -68.59107 378 ft 1 kts 257°
2026-05-06 18:55 -50.01862 -68.59135 378 ft 5 kts 260°
2026-05-06 18:56 -50.01867 -68.59174 377 ft 1 kts 241°
2026-05-06 18:56 -50.01881 -68.59178 377 ft 0 kts 173°
2026-05-06 18:56 -50.01885 -68.59176 377 ft 5 kts 160°
2026-05-06 18:56 -50.01884 -68.59139 378 ft 3 kts 45°
2026-05-06 18:57 -50.01862 -68.59096 378 ft 7 kts 75°
2026-05-06 18:57 -50.01861 -68.59088 378 ft 0 kts 78°
2026-05-06 18:57 -50.01843 -68.58954 379 ft 47 kts 78°
2026-05-06 18:57 -50.01711 -68.57981 382 ft 132 kts 77°
2026-05-06 18:58 -50.01561 -68.56494 1108 ft 136 kts 87°
2026-05-06 18:58 -50.01612 -68.55132 1995 ft 133 kts 97°
2026-05-06 18:58 -50.01637 -68.53696 2596 ft 139 kts 73°
2026-05-06 18:58 -50.01296 -68.52222 3018 ft 154 kts 66°
2026-05-06 18:59 -50.01243 -68.52015 3077 ft 156 kts 66°
2026-05-06 18:59 -50.01090 -68.51399 3256 ft 163 kts 67°
2026-05-06 18:59 -50.00826 -68.49571 3684 ft 188 kts 94°
2026-05-06 18:59 -50.01424 -68.47710 4188 ft 212 kts 139°
2026-05-06 19:00 -50.02829 -68.46787 4751 ft 232 kts 178°
2026-05-06 19:00 -50.04398 -68.47414 5351 ft 245 kts 217°
2026-05-06 19:00 -50.05466 -68.49509 5923 ft 255 kts 256°
2026-05-06 19:00 -50.05530 -68.52218 6481 ft 261 kts 291°
2026-05-06 19:01 -50.04612 -68.54615 7273 ft 262 kts 313°
2026-05-06 19:01 -50.03553 -68.56934 8175 ft 270 kts 295°
2026-05-06 19:01 -50.03347 -68.59806 9041 ft 282 kts 263°
2026-05-06 19:01 -50.04221 -68.62566 9918 ft 295 kts 230°
2026-05-06 19:02 -50.05883 -68.64500 10653 ft 307 kts 215°
2026-05-06 19:02 -50.07703 -68.66377 11116 ft 324 kts 219°
2026-05-06 19:02 -50.09498 -68.68626 11528 ft 340 kts 225°
2026-05-06 19:02 -50.11225 -68.71165 12109 ft 349 kts 228°
2026-05-06 19:03 -50.12923 -68.73916 12907 ft 352 kts 231°
2026-05-06 19:03 -50.14562 -68.76726 13699 ft 354 kts 232°
2026-05-06 19:03 -50.16186 -68.79602 14442 ft 358 kts 232°
2026-05-06 19:03 -50.17814 -68.82538 15177 ft 361 kts 233°
2026-05-06 19:04 -50.19431 -68.85486 15871 ft 364 kts 233°
2026-05-06 19:04 -50.21075 -68.88505 16560 ft 367 kts 234°
2026-05-06 19:04 -50.22723 -68.91544 17225 ft 371 kts 234°
2026-05-06 19:04 -50.24387 -68.94622 17860 ft 374 kts 234°
2026-05-06 19:05 -50.26075 -68.97751 18470 ft 378 kts 234°
2026-05-06 19:05 -50.27768 -69.00896 19076 ft 382 kts 234°
2026-05-06 19:05 -50.29489 -69.04096 19636 ft 386 kts 234°
2026-05-06 19:05 -50.31224 -69.07331 20160 ft 391 kts 234°
2026-05-06 19:06 -50.32971 -69.10586 20737 ft 394 kts 235°
2026-05-06 19:06 -50.34731 -69.13871 21323 ft 397 kts 235°
2026-05-06 19:06 -50.36503 -69.17184 21860 ft 400 kts 235°
2026-05-06 19:06 -50.38290 -69.20528 22400 ft 403 kts 235°
2026-05-06 19:07 -50.40084 -69.23891 22919 ft 406 kts 236°
2026-05-06 19:07 -50.41896 -69.27293 23431 ft 408 kts 236°
2026-05-06 19:07 -50.43177 -69.29699 23748 ft 410 kts 236°
2026-05-06 19:07 -50.44252 -69.31722 23865 ft 411 kts 236°
2026-05-06 19:08 -50.45855 -69.34740 23877 ft 411 kts 235°
2026-05-06 19:08 -50.47681 -69.38179 23878 ft 411 kts 236°
2026-05-06 19:08 -50.49511 -69.41637 23886 ft 411 kts 236°
2026-05-06 19:08 -50.51324 -69.45066 23881 ft 411 kts 236°
2026-05-06 19:09 -50.53159 -69.48538 23890 ft 411 kts 236°
2026-05-06 19:09 -50.54984 -69.51999 23887 ft 410 kts 236°
2026-05-06 19:09 -50.56771 -69.55379 23890 ft 394 kts 236°
2026-05-06 19:09 -50.58460 -69.58572 23885 ft 377 kts 236°
2026-05-06 19:10 -50.60102 -69.61682 23890 ft 360 kts 237°
2026-05-06 19:10 -50.61668 -69.64655 23888 ft 345 kts 237°
2026-05-06 19:10 -50.63153 -69.67485 23888 ft 330 kts 238°
2026-05-06 19:10 -50.64577 -69.70202 23882 ft 316 kts 238°
2026-05-06 19:11 -50.65948 -69.72821 23882 ft 302 kts 238°
2026-05-06 19:11 -50.67273 -69.75367 23890 ft 299 kts 239°
2026-05-06 19:11 -50.68577 -69.77885 23893 ft 300 kts 239°
2026-05-06 19:11 -50.69897 -69.80429 23903 ft 300 kts 239°
2026-05-06 19:12 -50.71229 -69.82995 23898 ft 300 kts 239°
2026-05-06 19:12 -50.72539 -69.85515 23900 ft 300 kts 239°
2026-05-06 19:12 -50.73856 -69.88052 23901 ft 300 kts 239°
2026-05-06 19:12 -50.75177 -69.90598 23907 ft 300 kts 239°
2026-05-06 19:13 -50.76494 -69.93133 23908 ft 300 kts 239°
2026-05-06 19:13 -50.77807 -69.95660 23905 ft 300 kts 239°
2026-05-06 19:13 -50.79129 -69.98210 23906 ft 300 kts 239°
2026-05-06 19:13 -50.80459 -70.00784 23906 ft 300 kts 239°
2026-05-06 19:14 -50.81783 -70.03346 23909 ft 300 kts 239°
2026-05-06 19:14 -50.83092 -70.05879 23905 ft 301 kts 239°
2026-05-06 19:14 -50.84412 -70.08444 23910 ft 301 kts 238°
2026-05-06 19:14 -50.85737 -70.11009 23912 ft 302 kts 239°
2026-05-06 19:15 -50.87074 -70.13597 23912 ft 302 kts 239°
2026-05-06 19:15 -50.88401 -70.16175 23905 ft 302 kts 239°
2026-05-06 19:15 -50.89710 -70.18720 23909 ft 301 kts 239°
2026-05-06 19:15 -50.91034 -70.21299 23906 ft 301 kts 239°
2026-05-06 19:16 -50.92342 -70.23854 23906 ft 301 kts 239°
2026-05-06 19:16 -50.93667 -70.26442 23912 ft 301 kts 239°
2026-05-06 19:16 -50.94970 -70.28987 23914 ft 301 kts 239°
2026-05-06 19:16 -50.96293 -70.31574 23914 ft 301 kts 239°
2026-05-06 19:17 -50.97614 -70.34159 23916 ft 300 kts 239°
2026-05-06 19:17 -50.98926 -70.36729 23922 ft 300 kts 239°
2026-05-06 19:17 -51.00240 -70.39307 23925 ft 301 kts 239°
2026-05-06 19:17 -51.01549 -70.41879 23928 ft 301 kts 239°
2026-05-06 19:18 -51.02736 -70.44528 23915 ft 293 kts 252°
2026-05-06 19:18 -51.03363 -70.47507 23915 ft 280 kts 269°
2026-05-06 19:18 -51.03409 -70.50513 23675 ft 269 kts 285°
2026-05-06 19:18 -51.02928 -70.53352 23406 ft 259 kts 299°
2026-05-06 19:19 -51.02032 -70.55759 23154 ft 253 kts 313°
2026-05-06 19:19 -51.00888 -70.57832 22896 ft 250 kts 315°
2026-05-06 19:19 -50.99726 -70.59866 22629 ft 249 kts 315°
2026-05-06 19:19 -50.98564 -70.61895 22357 ft 248 kts 315°
2026-05-06 19:20 -50.97407 -70.63913 22083 ft 247 kts 315°
2026-05-06 19:20 -50.96259 -70.65913 21815 ft 246 kts 315°
2026-05-06 19:20 -50.95041 -70.68022 21575 ft 277 kts 315°
2026-05-06 19:20 -50.93671 -70.70391 21321 ft 308 kts 315°
2026-05-06 19:21 -50.92189 -70.72964 21042 ft 322 kts 315°
2026-05-06 19:21 -50.90682 -70.75588 20794 ft 324 kts 315°
2026-05-06 19:21 -50.89152 -70.78246 20521 ft 323 kts 315°
2026-05-06 19:21 -50.87661 -70.80831 20245 ft 322 kts 315°
2026-05-06 19:22 -50.86152 -70.83442 19993 ft 321 kts 315°
2026-05-06 19:22 -50.84660 -70.86021 19742 ft 320 kts 315°
2026-05-06 19:22 -50.83158 -70.88616 19422 ft 319 kts 315°
2026-05-06 19:22 -50.81670 -70.91181 19027 ft 317 kts 315°
2026-05-06 19:23 -50.80181 -70.93745 18609 ft 316 kts 315°
2026-05-06 19:23 -50.78697 -70.96298 18153 ft 315 kts 315°
2026-05-06 19:23 -50.77240 -70.98800 17713 ft 314 kts 315°
2026-05-06 19:23 -50.75763 -71.01335 17242 ft 313 kts 315°
2026-05-06 19:24 -50.74300 -71.03844 16764 ft 312 kts 315°
2026-05-06 19:24 -50.72838 -71.06349 16308 ft 311 kts 315°
2026-05-06 19:24 -50.71366 -71.08868 15844 ft 311 kts 315°
2026-05-06 19:24 -50.69913 -71.11354 15396 ft 310 kts 315°
2026-05-06 19:25 -50.68463 -71.13831 14939 ft 309 kts 315°
2026-05-06 19:25 -50.67010 -71.16310 14490 ft 309 kts 315°
2026-05-06 19:25 -50.65542 -71.18811 14014 ft 308 kts 315°
2026-05-06 19:25 -50.64102 -71.21264 13591 ft 306 kts 315°
2026-05-06 19:26 -50.62668 -71.23703 13258 ft 301 kts 315°
2026-05-06 19:26 -50.61264 -71.26091 12948 ft 297 kts 314°
2026-05-06 19:26 -50.59874 -71.28451 12622 ft 292 kts 315°
2026-05-06 19:26 -50.58498 -71.30784 12317 ft 288 kts 314°
2026-05-06 19:27 -50.57156 -71.33058 12012 ft 283 kts 314°
2026-05-06 19:27 -50.55817 -71.35325 11698 ft 279 kts 314°
2026-05-06 19:27 -50.54514 -71.37531 11366 ft 277 kts 314°
2026-05-06 19:27 -50.53211 -71.39733 10959 ft 276 kts 314°
2026-05-06 19:28 -50.51911 -71.41927 10557 ft 276 kts 314°
2026-05-06 19:28 -50.50604 -71.44133 10277 ft 274 kts 314°
2026-05-06 19:28 -50.49300 -71.46336 10076 ft 276 kts 314°
2026-05-06 19:28 -50.47996 -71.48530 9877 ft 276 kts 314°
2026-05-06 19:29 -50.46690 -71.50727 9506 ft 276 kts 313°
2026-05-06 19:29 -50.45387 -71.52916 9136 ft 274 kts 313°
2026-05-06 19:29 -50.44098 -71.55080 8858 ft 269 kts 313°
2026-05-06 19:29 -50.42849 -71.57180 8777 ft 257 kts 313°
2026-05-06 19:30 -50.41654 -71.59186 8691 ft 246 kts 313°
2026-05-06 19:30 -50.40516 -71.61093 8536 ft 239 kts 313°
2026-05-06 19:30 -50.39388 -71.62981 8236 ft 238 kts 312°
2026-05-06 19:30 -50.38262 -71.64863 7946 ft 237 kts 312°
2026-05-06 19:31 -50.37116 -71.66744 7646 ft 236 kts 318°
2026-05-06 19:31 -50.35693 -71.67914 7334 ft 236 kts 351°
2026-05-06 19:31 -50.32747 -71.66321 6767 ft 230 kts 44°
2026-05-06 19:32 -50.31604 -71.64631 6507 ft 228 kts 45°
2026-05-06 19:32 -50.30446 -71.62920 6240 ft 226 kts 44°
2026-05-06 19:32 -50.29298 -71.61249 5978 ft 225 kts 44°
2026-05-06 19:32 -50.28112 -71.59718 5701 ft 224 kts 28°
2026-05-06 19:33 -50.26603 -71.59287 5427 ft 222 kts 348°
2026-05-06 19:33 -50.25280 -71.60363 5185 ft 216 kts 309°
2026-05-06 19:33 -50.24717 -71.62403 5034 ft 199 kts 270°
2026-05-06 19:33 -50.24997 -71.64439 4826 ft 187 kts 249°
2026-05-06 19:34 -50.25388 -71.66341 4612 ft 181 kts 253°
2026-05-06 19:34 -50.25650 -71.68211 4419 ft 174 kts 257°
2026-05-06 19:34 -50.25855 -71.70016 4276 ft 163 kts 258°
2026-05-06 19:34 -50.26016 -71.71702 4124 ft 152 kts 260°
2026-05-06 19:35 -50.26146 -71.73315 4005 ft 151 kts 261°
2026-05-06 19:35 -50.26260 -71.74938 3953 ft 150 kts 262°
2026-05-06 19:35 -50.26362 -71.76559 3962 ft 150 kts 262°
2026-05-06 19:35 -50.26458 -71.78178 3866 ft 150 kts 263°
2026-05-06 19:36 -50.26549 -71.79797 3659 ft 149 kts 263°
2026-05-06 19:36 -50.26638 -71.81409 3458 ft 148 kts 263°
2026-05-06 19:36 -50.26725 -71.82999 3254 ft 148 kts 262°
2026-05-06 19:36 -50.26815 -71.84605 3051 ft 147 kts 262°
2026-05-06 19:37 -50.26903 -71.86189 2855 ft 145 kts 262°
2026-05-06 19:37 -50.26991 -71.87730 2656 ft 143 kts 263°
2026-05-06 19:37 -50.27080 -71.89278 2464 ft 142 kts 263°
2026-05-06 19:37 -50.27168 -71.90794 2270 ft 140 kts 263°
2026-05-06 19:38 -50.27256 -71.92316 2082 ft 139 kts 264°
2026-05-06 19:38 -50.27344 -71.93813 1903 ft 135 kts 264°
2026-05-06 19:38 -50.27425 -71.95180 1704 ft 123 kts 265°
2026-05-06 19:38 -50.27504 -71.96520 1542 ft 122 kts 264°
2026-05-06 19:39 -50.27581 -71.97836 1386 ft 122 kts 264°
2026-05-06 19:39 -50.27658 -71.99146 1229 ft 122 kts 264°
2026-05-06 19:39 -50.27735 -72.00452 1063 ft 121 kts 264°
2026-05-06 19:39 -50.27813 -72.01762 899 ft 120 kts 264°
2026-05-06 19:40 -50.27890 -72.03052 732 ft 119 kts 265°
2026-05-06 19:40 -50.27964 -72.04295 647 ft 95 kts 264°
2026-05-06 19:40 -50.27998 -72.04856 649 ft 8 kts 264°
2026-05-06 19:40 -50.28001 -72.04906 649 ft 9 kts 264°
2026-05-06 19:41 -50.28007 -72.05011 649 ft 10 kts 264°
2026-05-06 19:41 -50.28016 -72.05167 649 ft 16 kts 264°
2026-05-06 19:41 -50.28033 -72.05339 649 ft 16 kts 242°
2026-05-06 19:41 -50.28121 -72.05397 651 ft 13 kts 189°
2026-05-06 19:42 -50.28211 -72.05399 653 ft 12 kts 173°
2026-05-06 19:42 -50.28294 -72.05378 654 ft 9 kts 168°
2026-05-06 19:42 -50.28329 -72.05375 655 ft 4 kts 175°
2026-05-06 19:42 -50.28348 -72.05369 655 ft 0 kts 171°